[[{"header":{"parameterUnit":"m.s-1","parameterCategory":1,"la1":30.2991,"la2":30.254,"lo1":-89.0895,"lo2":-89.0444,"dy":0.0017,"dx":0.0017,"nx":28,"ny":28,"refTime":"2024-10-12T03:00:00:Z","depth":0,"parameterNumber":2,"parameterNumberName":"U-component_of_WINDS"},"data":[0,0,0,0,0,0,0,0,0,0,0,0,0,0,0,0,0,0,0,0,0,0,0,0,0,0,0,0,0,0,0,0,0,0,0,0,0,0,0,0,0,0,0,0,0,0,0,0,0,0,0,0,0,0,0,0,0,0,-0.0553,-0.0552,0,-0.0526,-0.0526,-0.0525,-0.0497,-0.0497,-0.0497,-0.0496,-0.0469,-0.0469,-0.0469,0,0,0,0,0,0,0,0,0,0,0,0,0,-0.0581,-0.0581,-0.0553,-0.0552,-0.0552,-0.0526,-0.0526,-0.0525,-0.0497,-0.0497,-0.0497,-0.0496,-0.047,-0.0469,-0.0469,0,0,0,0,0,0,0,0,0,0,0,0,0,-0.0563,-0.0581,-0.0553,-0.0535,-0.0533,-0.0526,-0.0525,-0.0525,-0.0498,-0.0497,-0.0496,-0.0496,-0.047,-0.0469,-0.0469,-0.0477,0,0,-0.0467,-0.0467,0,0,0,0,0,0,0,0,-0.0564,-0.0562,-0.0538,-0.0536,-0.0534,-0.0514,-0.0526,-0.0509,-0.0498,-0.0511,-0.0496,-0.0496,-0.0485,-0.0483,-0.0479,-0.0476,-0.0475,-0.0467,-0.0467,-0.0466,-0.0466,0,0,0,0,0,0,0,-0.0565,-0.0563,-0.0542,-0.0538,-0.0535,-0.0529,-0.0526,-0.0522,-0.0502,-0.051,-0.0508,-0.0505,-0.0484,-0.048,-0.0478,-0.0474,-0.0467,-0.0466,-0.0466,-0.0466,-0.0478,-0.0478,0,0,0,0,0,0,-0.0569,-0.0564,-0.0543,-0.0541,-0.0548,-0.0529,-0.0525,-0.0521,-0.0502,-0.0498,-0.0505,-0.0504,-0.0481,-0.0479,-0.0477,-0.0487,-0.0466,-0.0466,-0.0466,-0.0477,-0.0478,-0.0479,0,0,0,0,0,0,-0.057,-0.0568,-0.0544,-0.0552,-0.0549,-0.0529,-0.0525,-0.0521,-0.0517,-0.0498,-0.0494,-0.0505,-0.0481,-0.0478,-0.0478,-0.0486,-0.0466,-0.0465,-0.0476,-0.0477,-0.0478,-0.0506,0,0,0,0,0,0,-0.0571,-0.0568,-0.057,-0.0552,-0.0548,-0.0544,-0.0525,-0.0521,-0.0516,-0.0514,-0.0497,-0.0494,-0.048,-0.0479,-0.0477,-0.0485,-0.0465,-0.0476,-0.0477,-0.0478,-0.0504,-0.0508,-0.0511,0,0,0,0,0,-0.0572,-0.0579,-0.0571,-0.0568,-0.0551,-0.0545,-0.0542,-0.0526,-0.0517,-0.052,-0.0508,-0.0494,-0.0485,-0.0479,-0.0477,-0.0485,-0.0475,-0.0477,-0.0478,-0.0503,-0.0507,-0.0511,0,0,0,0,0,0,-0.0599,-0.0576,-0.0567,-0.0568,-0.0559,-0.054,-0.0543,-0.0531,-0.0524,-0.0522,-0.0502,-0.0499,-0.0501,-0.0492,-0.0486,-0.0492,-0.0478,-0.0479,-0.0498,-0.0502,-0.0505,-0.0508,-0.0464,0,0,0,0,0,-0.0605,-0.0601,-0.0582,-0.0585,-0.0581,-0.0563,-0.0559,-0.0548,-0.0537,-0.0533,-0.0521,-0.0511,-0.0506,-0.0503,-0.0498,-0.0503,-0.05,-0.0507,-0.0511,-0.0513,-0.0515,-0.0519,-0.0522,-0.0483,-0.0483,-0.0483,0,0,-0.0617,-0.0604,-0.0603,-0.059,-0.0581,-0.0579,-0.056,-0.0557,-0.0555,-0.0533,-0.0532,-0.0523,-0.0511,-0.0514,-0.0514,-0.0507,-0.0525,-0.0515,-0.0518,-0.0518,-0.0521,-0.0524,-0.0528,-0.0484,-0.0484,-0.0484,0,0,-0.0639,-0.0628,-0.0631,-0.0622,-0.0609,-0.0597,-0.0598,-0.0582,-0.0575,-0.0574,-0.0557,-0.0555,-0.0546,-0.0539,-0.0534,-0.0554,-0.0542,-0.0553,-0.057,-0.0574,-0.0577,-0.058,-0.0589,-0.0592,-0.0554,-0.0554,-0.0554,0,-0.0656,-0.0651,-0.0633,-0.0632,-0.0628,-0.0607,-0.061,-0.0603,-0.0589,-0.0586,-0.0578,-0.0568,-0.0558,-0.056,-0.0565,-0.0561,-0.0562,-0.0555,-0.0578,-0.0581,-0.0583,-0.0591,-0.0594,-0.0556,-0.0556,-0.0555,-0.0555,0,-0.0674,-0.0671,-0.0674,-0.0662,-0.0657,-0.0658,-0.0641,-0.0639,-0.0628,-0.0617,-0.0617,-0.0605,-0.0597,-0.0597,-0.0586,-0.0597,-0.0593,-0.0582,-0.0567,-0.0589,-0.0596,-0.0599,-0.0558,-0.0557,-0.0557,-0.0557,0,0,-0.0711,-0.069,-0.0691,-0.0686,-0.0671,-0.0668,-0.0669,-0.0661,-0.0661,-0.0652,-0.0653,-0.0646,-0.0636,-0.0631,-0.0619,-0.0622,-0.0641,-0.061,-0.061,-0.0618,-0.0655,-0.0665,-0.0669,-0.0633,-0.0633,-0.0633,-0.0657,0,-0.0731,-0.0731,-0.0716,-0.072,-0.0718,-0.0699,-0.07,-0.0691,-0.0681,-0.0678,-0.0667,-0.0664,-0.065,-0.0647,-0.0649,-0.0638,-0.0649,-0.0636,-0.0634,-0.0635,-0.0639,-0.0672,-0.0682,-0.0705,-0.0659,-0.066,-0.066,0,-0.0755,-0.0748,-0.0752,-0.0738,-0.0737,-0.0738,-0.073,-0.0728,-0.0718,-0.071,-0.0705,-0.0692,-0.0692,-0.0678,-0.0679,-0.0671,-0.0669,-0.0664,-0.0665,-0.0665,-0.065,-0.0675,-0.0711,-0.0715,-0.0664,-0.0664,-0.0664,0,-0.0784,-0.0775,-0.0777,-0.0773,-0.0756,-0.0758,-0.0751,-0.074,-0.0737,-0.0731,-0.0729,-0.0723,-0.072,-0.0716,-0.0701,-0.0692,-0.0705,-0.0689,-0.07,-0.0701,-0.0704,-0.0705,-0.0743,-0.0701,-0.0701,-0.0701,-0.0701,0,-0.0809,-0.0812,-0.0791,-0.0792,-0.0796,-0.0778,-0.0783,-0.0774,-0.0765,-0.0765,-0.0748,-0.0748,-0.0729,-0.0728,-0.0716,-0.072,-0.0718,-0.0713,-0.0711,-0.0716,-0.0717,-0.0715,-0.0714,-0.0702,-0.0702,-0.0702,-0.0701,0,-0.0842,-0.0827,-0.0829,-0.0813,-0.0809,-0.0813,-0.08,-0.0801,-0.079,-0.0791,-0.079,-0.0773,-0.0771,-0.0756,-0.075,-0.0742,-0.0751,-0.0744,-0.0754,-0.0753,-0.0765,-0.0765,-0.0805,-0.081,-0.0764,-0.0764,-0.0765,0,-0.086,-0.0862,-0.0847,-0.0846,-0.084,-0.0838,-0.0835,-0.0818,-0.0816,-0.0806,-0.0808,-0.0804,-0.08,-0.0798,-0.0785,-0.0781,-0.0775,-0.0789,-0.0774,-0.078,-0.0777,-0.0778,-0.0779,-0.0793,-0.0794,-0.0794,-0.0795,0,-0.0893,-0.0886,-0.0882,-0.0876,-0.0874,-0.0868,-0.0862,-0.0862,-0.0843,-0.0842,-0.0839,-0.0836,-0.0831,-0.0828,-0.0821,-0.0815,-0.0802,-0.0799,-0.0802,-0.0808,-0.0814,-0.0813,-0.0765,-0.0799,-0.0798,-0.0798,-0.0798,-0.0798,-0.092,-0.0922,-0.0912,-0.0909,-0.0903,-0.0897,-0.0898,-0.0888,-0.0885,-0.088,-0.087,-0.0869,-0.086,-0.0851,-0.0845,-0.0845,-0.0837,-0.0841,-0.0842,-0.0843,-0.0847,-0.0813,-0.0843,-0.0843,-0.0843,-0.0843,-0.0843,0,-0.0953,-0.0946,-0.0944,-0.0936,-0.0934,-0.0922,-0.0914,-0.0914,-0.0913,-0.0906,-0.0903,-0.0901,-0.0898,-0.0886,-0.0882,-0.0884,-0.0879,-0.0884,-0.0884,-0.0884,-0.0853,-0.0852,-0.0889,-0.0889,-0.0889,-0.0889,-0.0889,-0.0889,-0.0971,-0.0974,-0.0966,-0.0967,-0.096,-0.0959,-0.0956,-0.0952,-0.0946,-0.0945,-0.0942,-0.0934,-0.0926,-0.0921,-0.0919,-0.0915,-0.0915,-0.0923,-0.0918,-0.089,-0.0885,-0.0881,-0.088,-0.0923,-0.0923,-0.0949,-0.0949,-0.0949]},{"header":{"parameterUnit":"m.s-1","parameterCategory":1,"la1":30.2991,"la2":30.254,"lo1":-89.0895,"lo2":-89.0444,"dy":0.0017,"dx":0.0017,"nx":28,"ny":28,"refTime":"2024-10-12T03:00:00:Z","depth":0,"parameterNumber":3,"parameterNumberName":"V-component_of_WINDS"},"data":[0,0,0,0,0,0,0,0,0,0,0,0,0,0,0,0,0,0,0,0,0,0,0,0,0,0,0,0,0,0,0,0,0,0,0,0,0,0,0,0,0,0,0,0,0,0,0,0,0,0,0,0,0,0,0,0,0,0,2.6861,2.686,0,2.6821,2.6821,2.682,2.6808,2.6808,2.6809,2.6809,2.6764,2.6762,2.6761,0,0,0,0,0,0,0,0,0,0,0,0,0,2.6922,2.6921,2.6861,2.686,2.686,2.6821,2.6821,2.682,2.6808,2.6808,2.6809,2.6809,2.6764,2.6763,2.6761,0,0,0,0,0,0,0,0,0,0,0,0,0,2.689,2.692,2.6861,2.6849,2.6848,2.6821,2.6821,2.682,2.6808,2.6808,2.6809,2.6809,2.6765,2.6763,2.6761,2.6742,0,0,2.6754,2.6753,0,0,0,0,0,0,0,0,2.6892,2.6888,2.6852,2.685,2.6848,2.682,2.6826,2.6794,2.6808,2.6823,2.6809,2.6809,2.6782,2.6779,2.677,2.674,2.6738,2.6754,2.6753,2.6752,2.6751,0,0,0,0,0,0,0,2.6894,2.6889,2.6845,2.6851,2.6849,2.6845,2.6841,2.682,2.6801,2.6822,2.6821,2.6817,2.6781,2.6772,2.6769,2.6737,2.6754,2.6752,2.6751,2.675,2.6687,2.6687,0,0,0,0,0,0,2.6899,2.6891,2.6846,2.6844,2.6871,2.6843,2.6839,2.6829,2.6801,2.6798,2.6816,2.6816,2.6776,2.6772,2.6767,2.6743,2.6752,2.675,2.6749,2.6688,2.6687,2.6687,0,0,0,0,0,0,2.69,2.6895,2.6848,2.6867,2.6861,2.6842,2.6831,2.6828,2.6819,2.6797,2.6794,2.6811,2.6776,2.677,2.6748,2.6741,2.6749,2.6747,2.6688,2.6688,2.6687,2.6693,0,0,0,0,0,0,2.6902,2.6895,2.6889,2.6867,2.686,2.6831,2.6831,2.6827,2.6816,2.6815,2.6791,2.6787,2.6776,2.6751,2.6746,2.6738,2.6746,2.6689,2.6688,2.6687,2.6694,2.6693,2.6692,0,0,0,0,0,2.6904,2.6891,2.6889,2.6883,2.6852,2.683,2.6826,2.6814,2.6816,2.6808,2.6794,2.6788,2.6743,2.6749,2.6743,2.6734,2.6689,2.6688,2.6687,2.6694,2.6693,2.6692,0,0,0,0,0,0,2.6911,2.6888,2.6885,2.6865,2.685,2.6828,2.6819,2.6814,2.6796,2.6796,2.6781,2.6775,2.6754,2.6742,2.675,2.6714,2.6716,2.6713,2.6723,2.6722,2.6721,2.6724,2.6744,0,0,0,0,0,2.6911,2.6897,2.6877,2.6861,2.6854,2.6838,2.6828,2.682,2.6803,2.6796,2.678,2.6763,2.6744,2.6732,2.6714,2.6692,2.6686,2.6683,2.6682,2.6682,2.668,2.6666,2.6664,2.6684,2.6684,2.6684,0,0,2.6909,2.6895,2.6887,2.6863,2.685,2.6834,2.6832,2.6816,2.6804,2.6793,2.6771,2.6759,2.6738,2.6716,2.6705,2.6705,2.6673,2.6681,2.6681,2.6679,2.6665,2.6663,2.6661,2.6683,2.6683,2.6683,0,0,2.6898,2.6887,2.6872,2.686,2.6841,2.683,2.6827,2.6806,2.6798,2.6776,2.6768,2.6752,2.6721,2.6706,2.6695,2.6678,2.6672,2.6673,2.6669,2.6656,2.6654,2.6653,2.6646,2.6644,2.6671,2.6671,2.6671,0,2.6898,2.6876,2.6865,2.6849,2.6838,2.6829,2.6814,2.6801,2.6777,2.6769,2.677,2.6731,2.6716,2.669,2.6686,2.6677,2.6671,2.6675,2.6656,2.6654,2.6653,2.6646,2.6643,2.6671,2.6671,2.6671,2.6671,0,2.6876,2.686,2.6851,2.6829,2.6817,2.6801,2.6786,2.6775,2.6769,2.6757,2.6735,2.6717,2.6695,2.6688,2.6681,2.666,2.6661,2.6659,2.666,2.6651,2.6644,2.6642,2.6672,2.6671,2.6671,2.6671,0,0,2.6867,2.6841,2.6837,2.6827,2.6805,2.6792,2.6776,2.6756,2.6746,2.6729,2.6714,2.6688,2.6686,2.6673,2.6664,2.6653,2.6639,2.6652,2.6651,2.6649,2.6614,2.6615,2.6612,2.6635,2.6635,2.6634,2.6616,0,2.6853,2.6824,2.6814,2.679,2.6775,2.6766,2.6751,2.6736,2.6725,2.6709,2.6696,2.6678,2.6678,2.667,2.6658,2.6643,2.6632,2.6645,2.6619,2.6618,2.6624,2.6609,2.661,2.6593,2.6613,2.6612,2.6612,0,2.6832,2.6817,2.6791,2.6772,2.6765,2.6752,2.6732,2.6718,2.67,2.6692,2.6678,2.667,2.665,2.6654,2.6626,2.6635,2.6624,2.6615,2.6614,2.661,2.6614,2.6603,2.6587,2.6584,2.6608,2.6608,2.6609,0,2.6827,2.68,2.6781,2.6773,2.675,2.674,2.673,2.6712,2.6701,2.6683,2.6675,2.6655,2.6644,2.6628,2.6614,2.6618,2.6587,2.6589,2.6579,2.6579,2.6572,2.6572,2.6552,2.6567,2.6567,2.6567,2.6567,0,2.6811,2.6796,2.6779,2.6767,2.6749,2.6737,2.6719,2.6708,2.6692,2.6677,2.6668,2.6654,2.6637,2.662,2.6609,2.6586,2.6582,2.6574,2.6571,2.6574,2.6575,2.6566,2.6566,2.6566,2.6566,2.6566,2.6566,0,2.6802,2.6791,2.6769,2.675,2.6744,2.6732,2.6714,2.6701,2.669,2.6671,2.6666,2.6648,2.6627,2.6612,2.6585,2.6578,2.6554,2.6551,2.656,2.6559,2.6549,2.6549,2.6521,2.6516,2.6535,2.6535,2.6535,0,2.6793,2.6781,2.676,2.675,2.674,2.6724,2.6712,2.67,2.6688,2.6666,2.6656,2.6635,2.6618,2.6585,2.6568,2.6547,2.6543,2.6535,2.654,2.6544,2.6542,2.6542,2.654,2.6534,2.6534,2.6534,2.6534,0,2.6776,2.6771,2.6755,2.6738,2.6724,2.6709,2.6694,2.6686,2.6671,2.6657,2.6637,2.6624,2.6597,2.6576,2.6553,2.6541,2.6534,2.6533,2.6529,2.6531,2.6536,2.6532,2.6557,2.6533,2.6533,2.6533,2.6533,2.6533,2.6765,2.6754,2.6738,2.6721,2.6708,2.6694,2.6681,2.6669,2.6653,2.6631,2.6624,2.6603,2.6584,2.6553,2.654,2.6522,2.6522,2.6517,2.6516,2.6514,2.6514,2.6541,2.6518,2.6518,2.6518,2.6518,2.6518,0,2.6747,2.6737,2.6721,2.6701,2.6687,2.6684,2.6667,2.6655,2.6636,2.662,2.6604,2.658,2.6559,2.6542,2.652,2.6509,2.6505,2.6503,2.6503,2.65,2.6516,2.6521,2.6507,2.6507,2.6507,2.6507,2.6507,2.6507,2.6736,2.6717,2.671,2.6683,2.6672,2.6652,2.6643,2.6629,2.6616,2.659,2.6574,2.6563,2.6546,2.6523,2.6503,2.6498,2.649,2.6489,2.6483,2.6498,2.6499,2.65,2.6505,2.6488,2.6488,2.6469,2.6469,2.6469]}]]